Probability
0 0 0 0 0 0 0 0 0 0 0 0 0 0 0 0 0 0 0 0 0 0 0 0 0 0 0 0 0 0 0 0 0 0 0 0 0 0 0 0 0 0 0
0 0 0 0 0 0 0 0 0 0 0 0 0 0 0 0 0 0 0 0 0 0 0 0 0 0 0 0 0 0 0 0 0 0 0 0 0 0 0 0 0 0 0
0 0 0 0 0 0 0 0 0 0 0 0 0 0 0 0 0 0 0 0 0 0 0 0 0 0 0 0 0 0 0 0 0 0 0 0 0 0 0 0 0 0 0
0 0 0 0 0 0 0 0 0 0 0 0 0 0 0 0 0 0 0 0 0 0 0 0 0 0 0 0 0 0 0 0 0 0 0 0 0 0 0 0 0 0 0
0 0 0 0 0 0 0 0 0 0 0 0 0 0 0 0 0 0 0 0 0 0 0 0 0 0 0 0 0 0 0 0 0 0 0 0 0 0 0 0 0 0 0
0 0 0 0 0 0 0 0 0 0 0 0 0 0 0 0 0 0 0 0 0 0 0 0 0 0 0 0 0 0 0 0 0 0 0 0 0 0 0 0 0 0 0
0 0 0 0 0 0 0 0 0 0 0 0 0 0 0 0 0 0 0 0 0 0 0 0 0 0 0 0 0 0 0 0 0 0 0 0 0 0 0 0 0 0 0
0 0 0 0 0 0 0 0 0 0 0 0 0 0 0 0 0 0 0 0 0 0 0 0 0 0 0 0 0 0 0 0 0 0 0 0 0 0 0 0 0 0 0
0 0 0 0 0 0 0 0 0 0 0 0 0 0 0 0 0 0 0 0 0 0 0 0 0 0 0 0 0 0 0 0 0 0 0 0 0 0 0 0 0 0 0
0 0 0 0 0 0 0 0 0 0 0 0 0 0 0 0 0 0 0 0 0 0 0 0 0 0 0 0 0 0 0 0 0 0 0 0 0 0 0 0 0 0 0
0 0 0 0 0 0 0 0 0 0 0 0 0 0 0 0 0 0 0 0 0 0 0 0 0 0 0 0 0 0 0 0 0 0 0 0 0 0 0 0 0 0 0
0 0 0 0 0 0 0 0 0 0 0 0 0 0 0 0 0 0 0 0 0 0 0 0 0 0 0 0 0 0 0 0 0 0 0 0 0 0 0 0 0 0 0
0 0 0 0 0 0 0 0 0 0 0 0 0 0 0 0 0 0 0 0 0 0 0 0 0 0 0 0 0 0 0 0 0 0 0 0 0 0 0 0 0 0 0
0 0 0 0 0 0 0 0 0 0 0 0 0 0 0 0 0 0 0 0 0 0 0 0 0 0 0 0 0 0 0 0 0 0 0 0 0 0 0 0 0 0 0
0 0 0 0 0 0 0 0 0 0 0 0 0 0 0 0 0 0 0 0 0 0 0 0 0 0 0 0 0 0 0 0 0 0 0 0 0 0 0 0 0 0 0
0 0 0 0 0 0 0 0 0 0 0 0 0 0 0 0 0 0 0 0 0 0 0 0 0 0 0 0 0 0 0 0 0 0 0 0 0 0 0 0 0 0 0
0 0 0 0 0 0 0 0 0 0 0 0 0 0 0 0 0 0 0 0 0 0 0 0 0 0 0 0 0 0 0 0 0 0 0 0 0 0 0 0 0 0 0
0 0 0 0 0 0 0 0 0 0 0 0 0 0 0 0 0 0 0 0 0 0 0 0 0 0 0 0 0 0 0 0 0 0 0 0 0 0 0 0 0 0 0
0 0 0 0 0 0 0 0 0 0 0 0 0 0 0 0 0 0 0 0 0 0 0 0 0 0 0 0 0 0 0 0 0 0 0 0 0 0 0 0 0 0 0
0 0 0 0 0 0 0 0 0 0 0 0 0 0 0 0 0 0 0 0 0 0 0 0 0 0 0 0 0 0 0 0 0 0 0 0 0 0 0 0 0 0 0
0 0 0 0 0 0 0 0 0 0 0 0 0 0 0 0 0 0 0 0 0 0 0 0 0 0 0 0 0 0 0 0 0 0 0 0 0 0 0 0 0 0 0
0 0 0 0 0 0 0 0 0 0 0 0 0 0 0 0 0 0 0 0 0 0 0 0 0 0 0 0 0 0 0 0 0 0 0 0 0 0 0 0 0 0 0
0 0 0 0 0 0 0 0 0 0 0 0 0 0 0 0 0 0 0 0 0 0 0 0 0 0 0 0 0 0 0 0 0 0 0 0 0 0 0 0 0 0 0
0 0 0 0 0 0 0 0 0 0 0 0 0 0 0 0 0 0 0 0 0 0 0 0 0 0 0 0 0 0 0 0 0 0 0 0 0 0 0 0 0 0 0
0 0 0 0 0 0 0 0 0 0 0 0 0 0 0 0 0 0 0 0 0 0 0 0 0 0 0 0 0 0 0 0 0 0 0 0 0 0 0 0 0 0 0
0 0 0 0 0 0 0 0 0 0 0 0 0 0 0 0 0 0 0 0 0 0 0 0 0 0 0 0 0 0 0 0 0 0 0 0 0 0 0 0 0 0 0
Height
5687 5688 5689 5690 5692 5693 5695 5696 5698 5699 5700 5701 5702 5704 5705 5706 5707 5708 5709 5710 5711 5712 5713 5714 5716 5717 5718 5719 5720 5720 5721 5722 5722 5722 5722 5722 5723 5723 5724 5726 5727 5729 5730
5675 5676 5678 5679 5681 5682 5684 5685 5687 5688 5689 5690 5692 5693 5694 5694 5695 5696 5697 5698 5699 5700 5702 5703 5704 5705 5706 5707 5708 5709 5709 5709 5709 5709 5710 5710 5711 5711 5712 5713 5715 5716 5718
5663 5665 5666 5667 5669 5671 5673 5674 5675 5676 5678 5679 5680 5681 5682 5683 5684 5685 5686 5687 5688 5688 5690 5691 5692 5693 5694 5695 5695 5696 5696 5697 5697 5697 5697 5698 5698 5699 5700 5701 5702 5703 5705
5651 5651 5653 5655 5657 5659 5661 5662 5663 5664 5665 5667 5668 5669 5670 5671 5672 5673 5673 5674 5675 5676 5677 5678 5679 5680 5681 5682 5682 5683 5683 5684 5684 5684 5684 5684 5685 5686 5687 5688 5688 5689 5690
5639 5639 5640 5642 5644 5646 5648 5650 5651 5652 5653 5655 5656 5657 5658 5659 5659 5660 5661 5661 5662 5662 5663 5664 5665 5666 5667 5668 5669 5669 5670 5670 5670 5670 5670 5670 5670 5671 5672 5674 5674 5675 5676
5627 5628 5629 5631 5632 5634 5635 5637 5638 5639 5640 5642 5643 5644 5645 5645 5646 5646 5647 5647 5648 5649 5649 5650 5651 5652 5653 5654 5655 5655 5655 5656 5656 5656 5656 5656 5656 5656 5657 5658 5659 5660 5661
5616 5617 5617 5619 5620 5621 5622 5624 5625 5626 5627 5628 5629 5630 5631 5632 5633 5633 5634 5634 5634 5635 5636 5637 5637 5638 5639 5640 5640 5641 5641 5641 5641 5641 5641 5641 5641 5641 5641 5642 5643 5644 5646
5605 5606 5606 5607 5607 5608 5609 5610 5611 5612 5613 5615 5616 5616 5617 5618 5619 5619 5620 5620 5621 5621 5622 5623 5623 5624 5624 5625 5626 5626 5627 5627 5627 5626 5626 5626 5626 5625 5625 5626 5627 5628 5630
5593 5593 5594 5594 5594 5595 5596 5597 5598 5599 5600 5601 5602 5603 5603 5604 5605 5605 5606 5607 5607 5608 5608 5609 5609 5610 5610 5610 5611 5612 5612 5612 5612 5612 5611 5611 5610 5610 5610 5610 5611 5612 5613
5580 5580 5581 5581 5581 5582 5582 5583 5584 5585 5586 5587 5588 5589 5590 5591 5591 5592 5593 5594 5594 5594 5595 5595 5596 5596 5596 5596 5596 5597 5597 5597 5596 5596 5596 5595 5595 5595 5594 5595 5595 5595 5596
5568 5568 5568 5568 5569 5569 5569 5569 5570 5571 5572 5573 5574 5575 5576 5577 5578 5578 5579 5580 5580 5581 5581 5582 5582 5582 5582 5582 5582 5582 5582 5582 5581 5581 5580 5580 5580 5580 5579 5579 5579 5579 5580
5555 5555 5555 5555 5555 5556 5556 5556 5557 5558 5558 5559 5560 5561 5562 5563 5564 5564 5565 5566 5566 5567 5567 5567 5567 5567 5567 5567 5567 5567 5567 5566 5566 5566 5565 5565 5565 5564 5564 5564 5563 5564 5564
5543 5543 5543 5542 5542 5542 5543 5543 5544 5544 5545 5545 5546 5547 5547 5548 5549 5550 5551 5551 5552 5552 5553 5553 5553 5553 5553 5553 5552 5552 5552 5551 5551 5551 5551 5550 5550 5549 5549 5548 5548 5548 5548
5531 5531 5531 5530 5530 5529 5530 5530 5531 5531 5531 5531 5532 5533 5533 5534 5535 5536 5536 5537 5538 5538 5539 5539 5539 5539 5539 5538 5538 5537 5537 5537 5536 5536 5536 5535 5535 5534 5534 5533 5533 5533 5533
5520 5519 5519 5518 5518 5517 5517 5517 5517 5517 5517 5518 5518 5519 5519 5520 5521 5522 5522 5523 5524 5524 5525 5525 5525 5525 5525 5525 5524 5524 5523 5523 5522 5522 5522 5521 5520 5520 5519 5519 5519 5518 5518
5509 5507 5506 5506 5505 5505 5504 5504 5504 5504 5504 5504 5505 5505 5506 5506 5507 5508 5509 5509 5510 5511 5511 5511 5511 5511 5511 5511 5510 5510 5510 5509 5509 5508 5508 5507 5507 5506 5505 5504 5504 5503 5503
5497 5496 5494 5493 5492 5492 5491 5490 5490 5490 5491 5491 5492 5492 5493 5493 5494 5494 5495 5496 5497 5497 5498 5498 5498 5498 5498 5497 5496 5496 5496 5496 5495 5495 5494 5494 5493 5492 5491 5490 5489 5489 5488
5486 5484 5482 5481 5480 5479 5478 5478 5478 5478 5478 5479 5479 5479 5480 5480 5481 5481 5482 5483 5483 5484 5485 5485 5485 5485 5485 5484 5483 5483 5482 5482 5482 5482 5481 5480 5479 5478 5477 5476 5476 5475 5475
5474 5472 5471 5470 5468 5467 5467 5466 5466 5466 5466 5467 5467 5467 5467 5468 5468 5469 5469 5470 5471 5471 5472 5472 5472 5472 5472 5471 5471 5470 5470 5470 5469 5469 5468 5467 5466 5465 5464 5464 5464 5463 5462
5463 5462 5460 5459 5457 5456 5455 5455 5455 5455 5455 5455 5455 5455 5455 5456 5456 5457 5457 5457 5458 5459 5459 5460 5460 5460 5460 5459 5459 5458 5458 5458 5457 5456 5455 5455 5454 5452 5451 5451 5450 5450 5449
5453 5451 5449 5448 5446 5445 5444 5444 5444 5444 5443 5443 5443 5444 5444 5444 5444 5445 5445 5445 5445 5446 5447 5447 5448 5448 5448 5447 5447 5446 5446 5445 5445 5444 5444 5443 5442 5441 5439 5439 5438 5438 5436
5442 5440 5439 5437 5436 5434 5433 5433 5433 5433 5432 5432 5432 5432 5432 5432 5432 5432 5433 5433 5433 5434 5434 5435 5435 5435 5436 5435 5435 5434 5434 5433 5433 5433 5432 5431 5430 5429 5428 5427 5427 5426 5424
5432 5430 5428 5426 5425 5423 5423 5422 5422 5421 5421 5421 5421 5421 5421 5421 5421 5421 5421 5421 5421 5422 5423 5423 5424 5424 5424 5424 5423 5423 5422 5421 5421 5421 5420 5419 5418 5418 5417 5416 5415 5414 5413
5421 5419 5417 5416 5414 5413 5412 5411 5411 5410 5410 5410 5410 5410 5410 5410 5409 5409 5409 5409 5410 5410 5411 5412 5412 5412 5412 5412 5411 5411 5410 5410 5409 5409 5408 5408 5407 5407 5406 5405 5404 5403 5402
5411 5409 5407 5405 5404 5402 5401 5400 5400 5399 5399 5399 5399 5399 5398 5398 5398 5398 5398 5398 5398 5398 5399 5400 5400 5400 5401 5400 5400 5399 5399 5398 5398 5397 5397 5397 5396 5396 5395 5394 5393 5392 5391
5400 5398 5397 5395 5394 5392 5391 5390 5389 5389 5388 5388 5388 5387 5387 5387 5387 5387 5387 5386 5386 5386 5387 5387 5388 5388 5389 5388 5388 5387 5387 5387 5386 5386 5386 5386 5386 5385 5384 5384 5383 5382 5381
Wind_Speed
42 42 43 43 43 43 42 42 41 41 42 42 42 42 43 43 44 44 43 43 44 44 44 44 44 44 44 44 44 44 44 44 45 45 46 46 46 47 47 47 47 48 48
43 43 43 44 44 44 44 44 43 43 44 44 45 45 46 45 45 45 44 44 45 46 45 46 46 46 46 46 46 46 46 46 46 46 47 47 48 48 49 49 49 50 50
43 43 44 45 45 45 45 44 45 45 45 45 46 46 47 47 46 47 47 46 47 47 47 47 47 48 48 48 48 48 48 48 48 48 48 49 49 50 50 50 51 52 52
42 43 43 44 45 45 46 46 46 47 47 46 46 47 47 47 47 48 48 49 49 49 49 49 49 49 50 50 50 50 50 50 50 50 50 51 51 51 51 51 52 53 53
41 42 43 43 44 44 45 47 48 48 48 48 48 48 49 49 49 49 50 50 50 50 50 51 51 51 51 52 52 52 51 52 52 52 52 52 52 53 53 53 54 54 55
39 40 42 43 44 45 46 47 48 49 50 50 50 50 50 50 51 50 50 51 51 51 52 53 52 52 52 53 53 53 53 53 54 54 54 54 54 54 55 56 56 56 56
38 39 41 43 44 46 47 47 48 50 50 51 51 51 50 50 51 51 52 52 51 51 52 52 53 53 53 53 54 54 54 54 54 54 54 55 55 56 57 57 57 57 56
38 39 41 42 43 45 46 47 48 49 49 50 50 50 50 50 50 51 51 51 51 51 52 52 52 53 53 54 54 54 54 54 55 55 55 56 56 57 57 57 57 57 57
40 40 41 41 42 44 45 46 47 48 48 49 49 50 50 50 50 50 51 51 51 51 51 51 51 52 53 53 54 54 54 55 56 56 56 56 56 56 57 57 57 57 57
41 41 41 41 42 44 45 45 46 47 48 48 48 49 49 49 50 49 49 50 50 51 51 51 51 52 52 53 53 54 55 55 56 56 56 56 56 56 57 58 58 58 58
39 40 41 41 42 43 43 44 46 46 47 47 48 48 49 49 49 49 49 50 50 51 51 51 51 52 52 53 53 53 54 55 55 55 55 56 57 57 57 57 57 57 58
39 40 41 41 42 43 43 44 44 45 46 47 48 48 49 48 49 49 49 50 50 50 51 51 51 51 52 52 53 53 53 54 54 54 54 55 56 56 56 56 56 57 58
38 39 39 40 41 42 42 43 43 44 45 46 47 47 48 48 48 49 49 49 50 51 51 51 51 51 52 52 53 53 54 54 53 53 54 54 54 54 54 55 56 56 57
37 38 39 39 40 41 42 42 43 43 44 45 47 47 47 48 48 48 48 47 48 49 50 50 50 51 51 51 52 52 52 52 52 52 52 53 53 53 54 54 54 55 55
37 37 38 39 40 40 41 42 42 43 43 44 45 46 46 46 46 46 46 46 46 47 48 48 49 50 51 51 50 50 50 50 50 50 50 51 51 52 52 53 53 53 54
37 38 38 39 39 39 40 41 41 41 41 42 43 44 44 44 45 45 45 45 45 46 47 48 48 49 49 49 49 49 49 48 48 49 49 50 50 51 51 51 52 52 53
36 36 36 38 38 38 38 39 39 39 40 41 41 42 43 43 43 43 44 44 44 45 45 46 46 46 47 47 47 47 47 46 47 48 48 49 49 50 50 50 50 50 50
35 35 36 36 36 37 37 37 38 38 39 39 40 40 41 41 42 42 43 43 44 44 44 44 44 44 44 44 45 45 44 45 46 47 47 47 47 47 47 47 47 47 47
33 34 34 34 35 35 34 34 35 36 38 39 40 40 40 40 40 41 41 42 43 43 43 42 42 41 41 42 42 43 43 44 44 44 45 44 44 44 44 44 45 45 46
34 34 33 34 34 34 34 33 34 35 36 38 39 40 39 39 40 40 41 41 42 41 41 41 41 41 40 40 41 41 42 41 41 41 41 41 41 42 42 43 43 44 44
33 34 34 33 33 33 34 34 34 35 36 36 37 38 39 39 39 39 40 40 40 40 41 41 40 40 39 40 40 40 40 40 40 39 39 40 40 40 40 41 41 41 41
33 34 33 33 33 32 33 33 34 35 36 36 36 36 37 38 38 38 38 38 39 39 39 39 39 39 39 39 39 39 39 39 39 39 39 39 40 40 40 40 40 40 40
33 33 33 33 33 32 33 33 34 34 35 36 36 36 36 36 37 37 38 38 38 38 38 38 38 37 37 37 38 38 38 38 38 38 38 38 38 38 38 38 38 38 38
33 33 32 32 32 33 33 33 33 34 34 34 35 36 36 36 36 36 37 37 38 37 37 37 37 37 37 37 37 38 37 37 38 38 38 38 38 38 37 37 37 37 37
32 33 33 32 32 32 32 33 33 34 34 34 34 35 35 35 36 36 36 36 36 37 37 37 37 37 37 37 37 37 36 36 37 37 36 36 36 36 35 35 35 35 35
31 31 31 31 30 30 31 31 32 33 34 34 34 34 34 34 34 35 35 35 36 37 37 37 37 37 37 37 36 36 36 36 36 36 36 36 35 35 35 35 35 35 35
Wind_Direction
258 257 256 255 254 254 255 256 256 256 256 256 256 255 256 259 260 260 259 259 259 260 261 261 260 259 259 259 260 261 262 263 264 264 264 264 263 263 262 261 261 260 260
256 256 256 255 254 253 254 255 256 256 256 256 256 256 259 260 259 260 259 259 259 260 261 261 261 260 261 261 260 261 262 263 264 264 264 264 264 263 263 262 261 261 261
258 256 255 255 255 254 255 255 255 256 256 257 257 258 259 260 260 260 259 260 260 260 260 260 261 261 262 261 261 261 263 264 264 264 264 264 264 264 263 263 262 261 261
259 257 255 254 254 254 254 254 255 255 256 256 257 258 259 260 260 259 260 260 261 261 261 261 262 262 262 261 262 262 263 264 264 264 265 265 265 264 263 263 263 262 262
259 257 255 254 253 253 254 254 254 255 256 257 258 259 260 261 261 260 261 262 262 262 262 262 262 262 262 263 263 263 264 264 264 265 265 265 266 265 264 263 264 263 263
259 258 255 255 255 255 254 254 255 255 257 258 259 260 261 261 261 261 262 262 263 263 263 264 263 263 264 264 264 264 265 265 266 266 266 266 266 266 265 264 265 264 264
259 258 257 256 257 257 256 256 256 257 257 258 260 261 261 262 261 261 261 261 262 263 264 264 264 265 265 265 265 265 265 266 266 266 267 267 267 267 266 266 265 264 263
261 260 260 259 259 259 258 257 257 257 258 259 259 260 261 261 261 261 261 261 262 263 263 264 265 265 265 266 265 266 266 266 266 267 268 269 268 267 266 266 266 265 264
264 264 262 262 261 261 260 259 259 258 258 259 259 259 260 260 260 260 260 260 261 262 262 263 264 264 265 265 265 266 266 266 266 267 268 268 267 267 267 266 266 266 265
267 265 264 263 262 262 261 261 260 260 259 259 259 259 259 259 260 260 260 261 261 261 262 263 264 265 265 265 265 265 266 267 267 267 267 267 267 267 268 267 267 266 265
267 266 265 264 263 263 262 261 261 260 260 259 259 259 259 259 260 260 260 261 262 262 262 263 264 264 264 265 265 265 267 268 268 268 268 268 267 267 268 267 267 267 266
267 267 266 265 264 264 263 263 262 261 260 260 259 259 259 259 259 260 260 261 261 261 263 264 264 264 264 264 265 266 266 267 267 267 267 268 268 268 267 266 266 267 267
268 266 266 266 266 266 265 264 264 263 262 261 260 259 258 258 258 259 259 260 260 261 263 263 263 264 264 264 265 266 267 267 267 266 267 267 268 267 267 267 267 267 267
271 270 268 268 268 267 266 265 265 264 263 262 261 260 258 258 258 258 258 259 260 261 262 263 263 264 264 264 265 266 267 267 267 267 267 267 267 267 267 268 268 268 268
273 272 271 269 268 267 266 265 265 264 263 262 261 260 259 259 258 257 257 258 259 260 261 262 263 264 264 265 265 266 267 267 267 267 267 267 267 268 269 269 269 270 269
274 272 272 271 269 268 266 265 264 264 263 262 262 260 259 259 258 257 257 257 259 260 261 262 263 263 264 265 265 266 266 267 267 268 268 268 269 270 270 270 270 270 270
275 274 273 272 270 270 268 266 264 263 263 262 262 261 260 259 259 258 258 258 259 259 260 262 263 263 264 265 265 266 266 267 267 268 269 270 271 270 271 270 270 270 270
277 276 275 274 272 270 268 266 264 263 262 261 261 261 261 260 260 259 259 259 259 259 261 262 263 263 264 264 265 265 267 268 268 269 270 271 271 270 269 269 269 269 270
279 277 276 274 272 269 267 266 265 263 261 261 261 261 261 261 261 260 260 260 259 260 261 262 262 263 264 265 265 265 266 268 269 270 271 271 271 270 269 268 269 270 270
280 277 276 275 271 269 267 266 265 264 263 262 262 261 261 261 262 262 262 261 260 260 261 261 263 264 265 265 265 266 267 268 269 270 270 270 270 270 269 269 270 270 271
281 279 277 275 272 270 267 266 265 265 265 264 263 262 262 263 263 263 263 262 261 260 260 262 263 264 265 266 267 267 267 268 269 269 270 270 270 270 270 271 272 272 272
281 278 277 275 273 270 268 268 267 266 266 266 266 265 264 264 263 263 263 262 261 262 263 264 263 264 265 266 267 267 267 268 268 268 269 270 270 270 271 272 273 273 273
281 279 276 275 273 271 270 269 268 267 266 265 266 266 266 266 266 265 264 264 263 262 263 264 264 264 266 267 267 267 267 267 267 268 269 269 269 270 272 273 273 273 273
281 280 278 276 274 273 272 271 269 268 268 266 266 267 268 268 267 267 266 264 263 262 263 263 263 264 265 267 267 267 267 267 267 268 268 268 268 269 272 273 274 273 273
281 280 279 278 277 275 273 272 270 268 268 268 268 267 268 268 267 267 266 265 263 262 262 263 263 264 266 267 267 266 266 266 266 266 267 267 268 269 270 272 273 273 273
280 280 279 278 277 276 275 274 272 270 269 269 268 268 268 268 268 266 265 264 263 262 263 263 264 265 266 267 268 267 266 266 266 266 267 268 268 269 269 271 272 273 273